Home > Weather > King's Lynn > Past weeks

Flag for United Kingdom Past Weather in King's Lynn, England, United Kingdom — Yesterday and Last 2 Weeks

Now
66 °F

Mild.


Feels Like: 66 °F
Forecast: 55 / 72 °F
Wind: 8 mph from North

Location: Marham

Current Time: Aug 26, 2016 at 9:09:44 PM

Latest Report: Aug 26, 2016 at 7:50 PM


Visibility: N/A

Pressure: 30.09 "Hg

Humidity: 60%

Dew Point: 52 °F

Location of King's LynnLocation

Past Weather in King's Lynn — Graph

°F

King's Lynn Temperature Yesterday

Maximum temperature yesterday: 77 °F (at 1:50 PM)
Minimum temperature yesterday: 61 °F (at 10:50 PM)
Average temperature yesterday: 67 °F

High & Low Weather Summary for the Past Weeks

 TemperatureHumidityPressure
High84 °F (Aug 23, 2:50 PM)100% (Aug 16, 4:50 AM)30.33 "Hg (Aug 16, 4:50 AM)
Low46 °F (Aug 16, 4:50 AM)37% (Aug 23, 2:50 PM)29.62 "Hg (Aug 20, 7:50 AM)
Average65 °F75%30.03 "Hg
* Reported Aug 11 7:50 PM — Aug 26 7:50 PM, King's Lynn, Weather by CustomWeather, © 2016

Note: Actual official high and low records may vary slightly from our data, if they occured in-between our weather recording intervals... More about our weather records

Advertising

King's Lynn Weather History for the Previous 24 Hours

Scroll right to see more
 ConditionsComfort  
Time TempWeatherWind HumidityBarometerVisibility
7:50 PM
Fri, Aug 26
66 °FMild.8 mph60%30.09 "HgN/A
6:50 PM72 °FMild.9 mph47%30.07 "HgN/A
5:50 PM75 °FPassing clouds.12 mph44%30.07 "HgN/A
4:50 PM75 °FPassing clouds.13 mph41%30.07 "HgN/A
3:50 PM77 °FPleasantly warm.10 mph39%30.07 "HgN/A
2:50 PM77 °FPleasantly warm.10 mph39%30.07 "HgN/A
1:50 PM75 °FPassing clouds.12 mph39%30.07 "HgN/A
12:50 PM73 °FPassing clouds.10 mph41%30.07 "HgN/A
11:50 AM72 °FPassing clouds.10 mph44%30.04 "HgN/A
10:50 AM68 °FPassing clouds.10 mph60%30.04 "HgN/A
9:50 AM66 °FPassing clouds.10 mph68%30.04 "HgN/A
8:50 AM64 °FPartly sunny.10 mph83%30.01 "HgN/A
7:50 AM63 °FPassing clouds.5 mph88%30.01 "HgN/A
6:50 AM57 °FPassing clouds.6 mph100%29.98 "HgN/A
5:50 AM59 °FPassing clouds.3 mph94%29.95 "HgN/A
4:50 AM61 °FLight rain. Passing clouds.5 mph94%29.95 "HgN/A
3:50 AM63 °FFog.5 mph94%29.95 "Hg6 mi
2:50 AM63 °FPassing clouds.7 mph100%29.95 "Hg2 mi
1:50 AM63 °FFog.3 mph100%29.92 "Hg0 mi
12:50 AM61 °FFog.1 mph100%29.95 "Hg1 mi
11:50 PM
Thu, Aug 25
61 °FFog.6 mph100%29.92 "Hg1 mi
10:50 PM61 °FFog.2 mph100%29.92 "Hg2 mi
9:50 PM63 °FFog.5 mph94%29.92 "Hg3 mi
Weather by CustomWeather, © 2016

See weather overviewHow to use our weather pages